Badr 7

operational
NORAD ID: 41029 Int'l Des: 2015-065 Owner: ARAB Country: I-ARAB
HEOCIRCULARGSOGEO

About Badr 7

Description loading...

Live Position

Loading 3D Globe...

Upcoming Passes

Altitude History

Altitude vs Time

uPlot chart will show altitude changes over time

Two-Line Element Set

1 41029U 15065B 26063.06919770 .00000132 00000-0 00000+0 0 9994
2 41029 0.0256 198.7201 0003410 67.1359 306.8459 1.00271419 37716
Epoch: Mar 4, 2026 • Age: 21 hours

Current Status

Altitude 35794.0 km
Velocity 3.07 km/s
Sub-Earth Point -0.03°S, 25.95°E
Launch Date Nov 10, 2015
Age 10.3 years
Type other

Technical Details

Classification Payload
Mass 5799.00 kg
Dry Mass 3000.00 kg
Total Mass 5799.00 kg
Length 3.90 m
Diameter 2.40 m
Span 30.80 m
Shape Box + 2 panels
Manufacturer ADSB
Bus Type Eurostar 3000LS
Phase Status In Orbit
Owner/State ARAB/I-ARAB

Large Constellations

Loading constellations...